Powrót do katalogu

DELTA 1 DEB *

AktywnyLEO
NORAD 15789·DEBRIS·🇺🇸 United States

Wystrzelony Nov 6, 1973 z Vandenberg Space Force Base

Loading…

Następne Przeloty (najbliższe 24 godziny)

TLE

Starzejące sięSource: Space-Track

Epoka: Sep 12, 2026, 04:28 UTC

1 15789U 73086GT  26255.18657618  .00006899  00000-0  34717-1 0  9991
2 15789 103.7229  16.0406 0383720 331.6261 146.4010 12.50478380657909

Śledź DELTA 1 DEB * w czasie rzeczywistym z AllMySat

Download on the App Store